CAPE
2136 2155 2368 2498 2677 2575 2638 2627 2625 2721 2658 2704 2749 2828 2835 2514 2236 2208 2291 2180 1882 1561 1684 1804 1720 1410 555 389 314 274 234 142 146 120 218 465 434 2506 2462 2761 2646 2366 1649 1586 1500 1504 1581 1421 1554 1825 1847 1703 1857 1809 1752 1758 1734 1588 1702 1677 1720 1634 1672 1631 1886 1838 1867 1714 1647 1422 1601 1359 1352 1328 1422 1625 1462 1458 1252 1292 1080 1258 1121 1306 1502
2098 2311 2308 2596 2754 2814 2639 2555 2695 2633 2468 2747 2936 2906 2770 2617 2508 2401 2338 2587 2268 2078 1831 1303 1607 1059 725 316 268 142 176 118 62 14 102 292 798 2646 2665 2673 2514 2212 1724 1612 1662 1678 1732 1553 1492 1934 1824 1955 1919 1926 1864 1934 1978 1942 2018 2325 1614 1579 1557 1440 1333 1588 1402 1756 1656 1481 1580 1530 1561 1465 1576 1588 1655 1667 1620 1581 1241 1189 1474 1487 1427
2304 2460 2419 2580 2774 2741 2654 2658 2369 2542 2554 2670 2933 2864 2650 2635 2683 2585 2517 2725 2789 2530 2543 1945 1778 1374 572 402 252 212 124 42 17 2 6 118 736 2470 3061 3010 2378 1788 1754 1730 1708 1545 1818 1938 2006 1996 1936 1730 1917 2088 2042 2093 2031 1911 1884 1952 1779 1948 1593 1276 1267 1446 1462 1247 1296 1514 1308 1473 1466 1553 1526 1364 1134 1568 1620 1382 1350 1482 1708 1553 1606
2557 2625 2560 2712 2687 2706 2796 2828 2475 2661 2906 2895 3027 2878 3014 2995 3173 2978 2926 2568 2489 2400 2441 2012 1698 497 590 530 278 187 133 83 3 0 0 87 368 1608 1798 2627 2732 2346 1782 1727 1723 1554 1900 1886 1970 1859 1918 1658 1795 1762 1989 2044 1719 1708 1897 1622 2036 1990 1772 1861 1730 1496 1626 1474 1392 1486 1712 1636 1501 1353 1694 1910 1711 1779 1350 1316 1235 1096 1226 1498 1540
2557 2435 2428 2439 2828 3173 2958 2831 2684 2824 3012 3432 3135 3132 2920 2718 2830 2891 2952 2732 2506 2450 2357 1630 807 678 602 530 247 226 157 58 6 1 8 101 321 602 1309 1442 2134 2515 2011 1954 1943 1940 2025 1983 2049 1897 1884 1863 1686 1916 1961 2072 2004 2112 2072 1933 1968 2216 2171 2062 1904 1838 1865 2082 2047 1946 1779 1792 1604 1824 1728 1881 1650 1715 1444 1681 1083 1172 1290 1559 1619
2625 2798 2518 2384 2871 3222 3215 3032 2998 3208 3274 3582 3166 2758 2385 2812 2342 2330 2348 2351 2253 2480 1828 1321 748 537 430 298 229 138 73 30 24 3 46 58 178 348 1014 1578 1876 2525 2604 2312 2125 2107 2163 2053 2065 1864 2055 1757 1713 1848 1900 1827 2053 1980 1900 1994 1960 2130 2142 2124 2144 1994 2084 2107 2122 2287 2255 2230 2230 2009 1646 1864 2001 1984 1764 1821 1433 1435 1243 1407 1665
2821 2620 2440 2380 2593 2838 3152 2962 3182 3246 2917 3406 3099 2820 2690 2693 2602 2542 2622 2442 2160 2138 1833 1338 912 525 408 196 186 98 72 44 3 3 144 376 323 857 913 1184 2132 1782 2084 2141 2382 2205 2108 2120 1979 1841 1812 1745 1954 1913 1986 1993 1926 1994 2005 2191 2085 2185 2107 2140 2150 2212 2124 2094 1894 1982 2116 2104 2000 2170 2080 2111 2159 2070 1911 2022 2175 1970 1744 2061 2047
2828 2586 2324 2222 2342 2509 2880 3451 3794 3190 3206 3406 3147 2854 3037 2952 2988 2832 2729 1901 1392 1517 1361 979 936 543 305 233 160 106 61 9 2 6 48 329 788 676 1096 2128 2192 1897 1848 2066 1647 2494 2102 1882 1810 1629 1799 1862 1755 1886 2099 1958 2002 2067 1928 1904 1905 2090 2052 2157 2266 2304 2191 2196 2073 1990 1783 1766 1806 1723 1795 1746 1958 1766 1752 1757 1700 1864 2016 2138 2180
2656 2626 2470 2102 2322 2678 2964 3120 3794 3101 3330 3467 3139 2812 3031 2747 3160 2922 2794 2256 1364 1273 996 662 383 648 301 190 136 86 52 6 10 16 216 242 677 270 887 1468 1518 1810 2656 2120 2376 1814 2191 2267 1811 1760 1742 1688 1836 1879 1924 1934 2146 2086 2075 1826 2089 1907 2132 1992 2003 2217 2145 1878 2012 2027 2046 1983 1880 1799 1661 1586 1626 1613 1443 1187 1204 1248 1291 1805 1893
2707 2750 2698 2048 2414 2881 2756 3339 3444 3298 3298 3197 3154 2766 3060 3147 2823 3237 2164 2007 1328 1141 817 524 326 220 256 67 151 49 62 15 0 2 48 72 128 398 482 553 1296 1753 1811 1894 1884 2334 2208 2268 2221 1980 1892 1680 1770 1964 1831 2002 1797 1788 1842 1912 1865 1834 2004 1796 1963 1964 1853 1830 1844 1726 1818 1854 1830 1728 1645 1527 1680 1692 1592 1420 1318 1297 1362 1780 1977
2793 2888 2801 2287 2246 2955 3258 3850 3491 3476 3406 3258 3032 3000 2884 2550 2059 3123 3040 2087 1410 1214 870 410 261 136 200 201 182 179 80 8 0 0 8 12 78 208 96 334 385 1018 2031 2187 2184 2269 2236 2054 1374 1579 2133 2113 2071 2030 1839 1788 1790 1854 1800 1766 1794 1650 1820 1847 1796 1687 1790 1752 1801 1880 1674 1599 1527 1666 1621 1662 1686 1548 1611 1484 1482 1463 1654 1888 1880
2878 2899 2994 2598 2912 3189 3380 3879 3488 3431 3526 3199 2974 2860 3153 2892 3403 2552 3214 2076 1245 1042 505 259 42 2 99 217 143 136 110 28 36 9 20 70 160 214 105 192 126 271 533 1022 1574 2013 2472 2677 2372 2346 2158 2202 2098 1970 2027 1993 1831 1778 1801 1736 1748 1764 1630 1771 1573 1667 1532 1452 1478 1549 1551 1585 1688 1549 1528 1560 1643 1695 1758 1644 1572 1490 1752 1823 1693
2873 3183 3208 3501 3638 3615 3742 3917 3431 3673 3494 3362 3220 3118 2744 2275 2067 2370 1768 1346 1163 927 170 40 74 46 45 71 184 244 73 5 9 10 14 2 142 185 182 115 79 148 107 159 460 835 2528 2487 2346 2161 2316 2644 2419 2068 2115 1927 1864 1944 1796 1665 1738 1773 1636 1689 1627 1621 1513 1510 1454 1440 1522 1456 1374 1434 1392 1372 1496 1526 1640 1566 1732 1736 1778 1846 1764
3003 3498 4001 4437 3921 3634 4086 4162 4144 3513 3834 3782 3709 3309 2452 2134 1838 1890 1935 1380 1192 593 145 143 84 40 52 51 159 91 68 19 2 9 13 2 51 202 135 39 1 42 40 78 284 714 940 1148 1364 1927 2382 2496 2360 2666 2681 2160 1956 2010 2030 1870 1818 1714 1596 1634 1656 1632 1616 1567 1530 1556 1565 1624 1738 1662 1342 1345 1517 1457 1550 1601 1802 1818 1884 1746 1643
3193 3532 4092 4240 3822 3927 3999 4059 4224 3566 3958 3869 3967 3438 2826 2150 2190 1854 1611 1518 1101 844 394 166 16 14 134 13 48 22 17 71 5 4 8 2 16 90 64 28 0 0 0 24 67 210 368 660 877 895 784 726 1108 2268 1845 1030 2611 2134 1830 1745 2006 1830 1792 1641 1764 1691 1699 1594 1639 1793 1832 1871 1856 1758 1691 1786 1890 1891 1958 2042 2055 1946 1875 1886 1745
2862 3484 3742 3922 4205 4021 3752 3610 4278 4237 3859 4048 4066 3587 2784 2322 1953 1879 1884 1312 1261 676 366 108 70 0 83 61 4 13 17 3 47 3 3 1 2 10 10 30 6 0 0 0 28 140 325 501 918 1133 950 908 513 514 427 438 1170 1694 1744 2015 1927 2000 2050 1746 1719 1719 1452 1418 1641 1600 1390 1426 1274 1258 1535 1196 1236 1521 1639 1874 1872 1861 1852 1862 1843
2708 3297 3457 4167 4326 4020 3806 3795 3916 4399 3854 3900 3890 3410 2868 2134 2186 2150 2024 1452 1003 399 496 122 182 96 168 2 0 5 26 2 4 3 0 3 8 0 25 8 16 18 1 17 51 74 90 408 710 867 899 765 498 272 203 251 490 214 759 1416 1850 1851 1833 1971 1636 1601 1346 1130 1074 1061 1030 843 572 667 548 439 540 684 986 1196 1186 1431 1548 1732 1690
2780 3087 3538 3795 4372 4130 4030 3986 3812 4040 4100 3643 3400 3044 2600 2279 2026 2019 1926 1782 1527 436 404 215 318 129 126 188 433 110 5 1 6 10 28 13 30 8 16 2 4 26 34 17 34 54 64 104 412 531 592 330 253 167 201 75 9 152 198 34 153 798 1190 1209 972 645 351 463 558 599 782 682 655 429 454 381 588 525 518 590 728 742 706 831 818
2657 2993 3327 3591 3931 4130 4286 4266 3664 3724 3977 3904 3570 2898 2351 2336 2136 2044 1903 1913 1481 979 726 332 451 388 105 7 23 24 33 0 15 52 64 41 6 4 1 6 1 8 4 10 14 9 32 61 49 72 386 366 193 244 152 103 158 250 150 271 616 213 379 104 378 617 475 288 110 158 252 334 462 525 485 547 497 326 498 451 550 569 617 626 585
2462 2901 3306 3358 3691 3930 4234 4196 3915 3662 3802 3940 3315 2768 2489 2516 2434 2323 2159 2040 1894 1218 748 435 416 620 115 130 32 107 129 31 22 9 29 39 35 6 0 1 8 2 11 1 14 20 64 130 115 121 90 289 256 142 110 106 186 208 110 636 732 993 540 35 0 40 0 170 220 251 136 143 192 287 338 440 378 380 373 389 372 434 469 503 427
2815 2848 3320 3315 3416 3572 4166 4319 3993 4002 3951 3675 3139 2598 2716 2706 2794 2577 2314 2257 2002 1339 1175 766 308 287 248 376 172 228 64 28 45 45 32 10 15 24 12 6 2 7 1 4 2 10 12 26 69 59 61 92 194 248 95 199 230 295 359 1237 1511 798 1082 876 340 4 0 0 26 66 184 182 221 230 300 280 275 284 332 403 482 507 500 517 353
3425 3094 3426 3474 3326 3512 3558 3999 4068 3303 3348 3107 2963 2740 2747 2834 2755 2590 2404 2369 2153 1535 1296 915 397 326 609 607 317 220 160 71 27 20 10 39 20 8 7 17 28 8 10 8 10 4 12 8 38 34 18 25 31 96 70 104 329 254 681 1376 1599 1572 1288 1318 1364 652 123 43 114 180 112 138 193 200 198 244 261 206 133 143 188 274 436 521 524
2936 3240 3460 3435 3308 3391 3318 3496 3631 3251 3151 3218 3228 2806 2561 2735 2638 2548 2654 2487 2207 1860 1466 761 662 580 672 632 502 168 92 105 20 20 27 27 15 5 5 9 2 20 28 4 12 12 19 21 11 0 22 4 4 10 33 40 80 908 1923 1570 1668 1823 1659 1560 1534 1372 1112 915 658 451 358 221 123 95 87 106 150 243 262 200 157 135 126 190 200
3322 2656 3242 3148 3334 3430 3380 3142 3426 3308 3267 3330 3152 2880 2647 2566 2621 2745 2772 2616 2402 2042 1465 939 685 944 597 454 305 147 70 28 28 40 35 121 74 21 9 16 12 6 28 74 17 2 8 34 24 0 0 0 4 30 24 94 158 1388 1762 1664 1418 1599 1676 1613 1553 1624 1564 1430 1236 1009 851 673 497 422 382 265 156 60 36 38 84 180 206 200 196
3204 2900 2869 3314 3104 3728 3676 3421 3218 3328 3416 3229 3104 3194 3075 2716 2622 2587 2518 2500 2534 2162 1707 1242 718 814 542 426 438 271 192 92 44 53 44 114 99 148 26 4 50 30 65 9 8 0 0 2 0 0 0 3 12 167 176 26 28 1356 890 1506 1170 1777 1423 1600 1503 1280 1300 1169 1129 1173 1170 1022 988 1000 959 880 790 776 744 609 488 299 365 538 556
3056 3261 2739 3103 3070 3714 4054 3854 3734 3634 3792 3791 3498 3266 3214 3071 2894 2792 2513 2538 2415 2094 1852 1340 835 866 817 676 534 361 372 228 79 28 88 46 73 79 189 61 25 0 72 61 40 0 2 0 1 2 2 3 1 13 213 11 77 1289 492 377 1882 1218 1390 1470 1376 1249 1123 1088 1004 1057 1020 1058 1110 1128 1135 1126 1086 1042 1070 1014 949 874 698 750 779
3066 3370 3362 3211 3550 3685 4100 3867 3653 3679 3755 3654 3441 3393 3288 3136 2912 2992 2793 2465 2440 1974 1811 1459 655 818 903 903 760 549 384 439 170 54 58 157 200 166 289 250 14 0 19 19 49 2 0 1 0 0 8 112 57 76 156 184 678 528 495 1106 559 783 1118 751 1088 890 683 668 665 795 838 881 936 977 998 1080 1144 1186 1115 1162 1071 1057 964 812 846
3447 3459 3776 3543 3740 3793 4047 3807 3576 3468 3502 3348 3392 3187 3385 3145 3039 2912 3010 2527 2204 2182 1961 1586 726 924 969 1020 848 376 457 362 254 133 74 164 250 310 275 184 149 63 54 61 15 23 0 0 0 0 26 78 153 123 431 98 152 130 253 804 1009 894 294 565 569 592 600 484 502 611 604 570 628 632 721 864 1000 1076 1053 1089 1113 1096 1058 1046 977
3451 3599 3961 3938 4051 3905 3742 3534 3669 3723 3667 3574 3366 3577 3599 3313 3164 3210 3015 2274 2138 2150 2020 1770 907 770 883 1056 1057 606 732 693 490 244 373 359 276 377 311 219 218 123 157 98 71 4 0 0 20 484 158 287 528 228 418 311 351 499 629 460 494 804 378 42 214 430 346 384 326 240 207 225 326 420 700 860 846 898 939 914 968 1054 1127 1125 1089
3100 3424 3828 4239 4167 3961 3781 3665 3516 3593 3330 3338 3350 3440 3675 3504 2986 3040 2946 2532 2228 2240 2314 1997 1171 711 820 1115 1043 822 718 861 724 402 574 688 374 402 366 230 334 268 162 63 178 48 12 12 0 471 342 539 532 496 338 362 223 820 406 439 280 735 10 44 56 58 122 135 144 99 75 116 133 168 260 347 490 581 760 792 882 957 1002 1001 1006
3290 3402 3955 4128 4080 4139 3859 3923 3752 3688 3532 3206 3409 3441 3464 3241 3031 2803 2932 3002 2870 2389 2319 2170 1402 836 758 927 1169 882 978 1020 779 440 492 632 472 401 443 352 367 202 254 312 82 226 5 59 31 8 313 424 240 275 366 491 358 248 334 353 345 198 0 521 5 82 52 43 30 21 28 11 3 4 52 197 324 494 600 819 933 986 1050 1031 1029
3248 3522 3698 3813 3908 3879 3913 3644 3228 3485 3315 3046 3202 3356 3415 3195 2996 2679 2555 3200 3058 2556 2400 2185 1453 1070 1108 999 1142 1162 1016 1018 704 535 661 638 378 414 402 475 544 326 284 333 257 290 381 64 130 254 46 482 357 366 402 658 829 461 480 342 860 0 2 288 174 10 19 11 14 5 0 0 0 0 31 187 342 512 646 825 908 951 876 722 600
3230 3438 3734 3688 3641 3870 3604 3544 3351 3428 3392 3170 3228 3409 3395 3232 3103 3049 2872 2618 2687 2308 2572 2348 1530 1155 1438 1172 1096 1279 1230 976 782 486 524 509 412 381 399 494 373 368 368 375 387 436 427 303 146 132 218 164 445 474 448 472 764 239 406 431 482 40 340 413 646 349 71 9 4 0 0 0 0 1 30 150 358 492 664 670 660 528 409 365 486
3388 3352 3728 3719 3542 3771 3468 3505 3557 3430 3565 3401 3226 3259 3410 3156 3030 3034 2972 2705 2716 2608 2609 2537 1995 1439 1584 1364 1125 1306 1244 1197 699 545 314 532 395 308 491 396 345 485 424 551 389 376 417 656 493 222 323 205 226 564 451 321 372 616 337 357 515 374 295 358 240 1471 372 82 0 0 0 0 0 4 27 89 173 316 438 526 426 168 111 260 166
3404 3413 3580 3623 3618 3693 3746 3600 3638 3567 3734 3392 3296 3288 3352 3305 3232 3272 3150 2949 2722 2580 2534 2682 2360 1817 1622 1493 1112 1184 1380 1116 906 588 340 526 441 308 497 528 494 456 675 525 636 610 516 510 502 513 443 524 285 564 462 378 349 404 324 370 460 409 490 394 235 280 0 26 0 0 0 0 4 14 41 44 81 166 176 132 76 47 15 0 0
3198 3472 3401 3630 3756 3993 3993 3741 3788 3891 4012 3457 3234 3236 3389 3492 3520 3675 3500 3146 3059 2915 2938 2946 2412 2037 1756 1611 1011 963 1274 1308 1014 778 649 554 574 442 464 719 571 578 718 930 564 596 671 616 738 410 374 584 501 452 613 500 360 474 383 676 486 279 558 670 881 899 572 177 0 0 0 15 20 30 20 24 52 79 94 73 48 21 0 0 0
2924 3451 3452 3566 3764 4000 3997 3904 3918 4088 4038 3704 3238 3018 3230 3446 3740 3824 3838 3797 3636 3586 3376 3028 2366 2266 1965 1618 1136 983 1390 1329 1172 953 778 776 653 514 572 640 739 645 662 946 870 635 613 736 665 769 680 550 491 606 660 550 617 602 1160 676 816 979 840 686 648 760 635 180 23 0 1 10 36 42 17 61 82 78 104 118 97 18 0 0 0
3056 3186 3614 3555 3655 4002 4103 4042 4007 4050 4122 3726 3245 3120 2959 3170 3698 3917 4105 4054 3760 3639 3396 3034 2617 2297 2101 1794 1339 1166 1278 1429 1276 1141 1106 1018 909 761 715 652 856 833 784 969 957 907 832 784 811 619 944 656 622 614 785 723 542 870 1221 1304 1322 937 889 1232 794 486 632 705 866 570 495 145 119 55 224 147 78 66 56 44 30 2 0 0 0
3072 3071 3430 3794 3664 3904 4228 4174 4142 4252 4140 3750 3494 3251 3211 3355 3710 4023 3892 4021 3658 3538 3390 3016 2682 2364 2110 1981 1671 1472 1452 1526 1270 1289 1351 1242 1165 869 788 790 964 898 852 1015 1136 1000 1035 956 864 672 644 688 599 1098 1345 1010 898 776 778 910 963 1152 1622 1580 1632 1193 647 417 370 170 99 224 228 208 257 217 84 64 32 15 2 0 0 0 0
3042 3115 3251 3740 3820 3779 4057 4186 4192 4211 4161 3800 3541 3354 3177 3252 3503 3990 3978 3860 3651 3525 3330 3080 2736 2357 2136 1986 1724 1632 1628 1682 1444 1283 1553 1501 1396 1118 868 854 1002 1052 830 820 1122 1152 1093 1064 863 751 793 762 967 716 1379 1482 1076 1052 939 792 817 819 1140 1603 1626 1499 1310 830 703 206 309 171 290 389 126 114 127 172 297 26 50 33 6 0 0
3154 3156 3181 3560 3892 3844 3871 4056 4124 4090 4042 3898 3517 3164 3070 3130 3276 3504 3917 3777 3656 3524 3359 3115 2905 2540 2252 2067 1833 1682 1764 1658 1344 1260 1242 1538 1635 1232 1086 1046 1034 1036 907 796 1090 1225 1203 996 1002 877 723 702 706 1194 1272 1331 932 780 1186 1382 1112 841 874 982 1303 1347 1092 655 373 184 252 344 360 386 383 431 420 808 736 376 346 198 8 0 0
3397 3272 3316 3488 3680 3822 3786 3901 4006 4058 3968 4054 3287 2685 2578 3159 3396 3345 3650 3811 3689 3511 3474 3234 2994 2766 2472 2205 2080 1485 1410 1321 1227 1060 972 1152 1113 1127 1245 1349 1163 1168 1069 872 1008 1253 1231 1021 923 880 848 776 672 718 984 1234 1139 1212 1008 1136 767 1009 1172 1021 948 878 1060 560 349 323 274 239 224 286 272 302 288 218 190 107 201 65 30 0 0
3546 3500 3410 3478 3542 3701 3752 3790 3830 3912 3914 3838 3202 2775 2532 2560 3125 3508 3542 3831 3794 3610 3468 3428 3175 2940 2753 2536 2401 1803 1376 1188 1131 932 797 948 846 728 716 1068 1091 1045 1014 946 1001 1096 1142 1010 834 716 584 620 718 1063 1233 1041 959 1046 1016 1203 1169 1020 943 947 813 609 508 638 336 264 242 191 196 225 246 219 221 266 168 188 0 0 0 0 0
3726 3593 3484 3574 3688 3581 3666 3714 3678 3779 3928 3455 3112 2733 2445 2407 2636 3276 3379 3608 3630 3618 3515 3391 3306 3069 2894 2743 2551 2350 1851 1630 1598 1250 758 636 627 467 165 591 802 690 690 941 946 945 1060 1101 840 604 562 582 800 922 995 458 790 1020 992 978 1013 933 1025 697 353 150 280 314 141 76 66 91 97 85 108 145 67 10 8 68 0 0 0 0 0
3679 3753 3789 3656 3696 3664 3567 3768 3631 3679 3780 3310 2888 2688 2555 2463 2488 2734 3602 3633 3450 3418 3390 3400 3350 3260 3077 2871 2728 2449 2353 1261 1174 1505 1384 804 490 504 445 98 502 600 571 377 638 1283 1190 1051 782 692 715 676 793 1098 1066 749 1092 1038 1119 997 1093 1046 712 424 157 68 96 125 64 33 48 23 4 8 0 0 0 0 0 0 0 0 0 0 0
3680 3766 3600 3514 3558 3680 3565 3558 3754 3740 3760 3327 2948 2562 2320 2264 2402 2411 3015 3465 3444 3352 3370 3359 3355 3307 3276 3064 2829 2604 2488 1843 1520 1517 1752 1446 905 544 485 436 478 325 224 152 151 304 1074 895 942 938 945 998 1078 1037 1316 1033 1163 901 880 844 920 613 304 181 286 298 112 1 28 26 4 0 0 0 0 0 0 0 0 0 0 0 0 0 0
3724 3591 3513 3262 2962 3456 3278 3124 2931 3550 3608 3250 2968 2566 2305 2248 2254 2264 2602 3049 3391 3381 3388 3379 3356 3284 3311 3218 3017 2788 2625 2478 1793 1583 1837 1877 1492 960 690 634 650 525 464 466 412 339 427 239 683 1036 922 1184 1289 1150 1752 1109 946 994 1220 1038 647 366 279 269 15 16 18 9 14 8 2 0 0 0 0 0 0 0 0 0 0 0 0 0 0
3658 3556 3567 3571 3275 2971 2860 2748 3060 3134 3028 3018 2792 2590 2468 2362 2264 2164 2300 2796 3112 3298 3393 3320 3274 3288 3290 3300 3188 2990 2830 2768 1846 1157 1480 2007 1938 1652 1308 990 879 827 759 708 638 494 332 345 451 612 717 895 1096 1913 1563 1006 1099 957 668 121 55 26 31 43 11 0 0 0 2 0 0 0 0 0 0 0 0 0 0 0 0 0 0 0 0
3630 3716 3722 3337 3119 2942 2902 3161 2963 3162 3194 3134 2637 2441 2491 2477 2374 2269 2212 2440 2807 3129 3201 3006 2911 2943 3049 3225 3219 3064 2950 2989 2168 1382 1204 1398 2102 2110 2000 1653 1171 1055 931 828 738 585 392 270 0 0 296 546 563 544 509 294 2063 556 327 22 52 6 79 13 0 0 0 0 0 1 0 0 0 0 0 0 0 0 0 0 0 0 0 0 0
3531 3688 3632 3627 3383 3196 3076 3136 2744 3152 3238 3137 2815 2615 2530 2465 2408 2285 2235 2316 2554 2781 2982 2737 2681 2723 2711 2438 2771 3092 2982 3123 2108 1631 1526 1451 1890 2087 2048 1606 1434 1173 985 833 736 654 474 316 223 0 0 0 62 0 0 0 0 42 25 8 0 0 0 0 0 0 0 0 0 0 0 0 0 0 0 0 0 0 0 0 0 0 0 0 0
3631 3562 3437 3376 3348 3329 3149 2879 2775 2792 3237 3136 2862 2820 2599 2492 2413 2308 2386 2349 2531 2644 2856 2688 2617 2688 2749 2455 2173 2501 2882 2904 2104 1788 1708 1687 1639 2002 1813 1810 1810 1468 1098 916 802 732 627 508 374 278 89 6 205 383 40 0 0 2 0 0 0 0 0 0 0 0 0 0 2 0 0 0 0 0 0 0 0 0 0 0 0 0 0 0 0
Wind_Speed
10 10 10 9 9 9 9 7 6 6 7 5 5 6 6 7 5 6 4 5 5 5 6 7 4 5 6 7 8 7 5 5 4 6 6 7 7 12 14 13 13 14 13 12 11 10 8 6 6 6 5 3 3 3 3 3 4 6 7 8 10 11 11 12 12 12 13 11 10 11 10 10 9 9 9 8 8 7 7 7 6 6 7 7 7
9 10 9 9 9 8 8 8 6 6 6 4 4 5 5 5 4 4 3 4 5 4 6 5 5 4 5 5 6 7 7 7 nan nan 6 7 7 9 14 12 11 13 15 15 14 14 12 12 12 9 7 4 3 4 4 2 1 2 4 4 6 8 9 9 10 10 10 10 8 11 11 10 10 10 10 9 8 8 7 7 5 5 5 5 6
9 9 9 9 8 8 8 6 7 5 5 5 4 3 3 3 2 2 3 2 3 4 3 2 3 3 5 5 5 7 7 nan nan nan nan 8 7 5 10 13 13 13 13 13 13 13 14 15 14 10 7 5 5 7 5 5 5 5 6 7 7 4 4 7 8 8 7 10 9 10 13 14 15 13 12 12 11 10 9 8 7 5 5 3 3
9 9 9 8 8 7 6 7 5 6 5 3 3 3 3 3 4 3 3 3 3 4 4 3 4 4 6 6 5 5 7 nan nan nan nan nan 7 9 8 10 13 12 11 11 12 13 13 14 13 11 9 9 9 9 9 8 9 8 9 8 10 8 4 4 5 7 8 7 11 13 17 20 19 17 16 16 15 17 16 11 12 11 6 3 3
9 10 9 8 7 7 7 7 7 6 5 4 5 5 5 5 6 5 4 4 4 4 5 4 4 4 3 6 4 5 5 nan nan nan nan 8 10 11 8 9 9 14 13 14 14 13 14 15 14 13 13 13 11 11 11 11 12 11 11 12 11 9 8 6 4 5 7 11 13 14 15 19 19 17 17 16 15 17 17 18 14 12 10 6 5
9 8 8 7 7 7 7 7 6 6 6 6 6 6 3 2 2 3 3 2 2 4 5 5 5 5 4 5 4 4 nan nan nan nan nan nan 8 9 11 8 11 11 12 15 15 15 16 16 15 12 12 12 12 12 13 13 12 13 13 13 13 11 9 8 7 7 9 10 11 13 14 14 15 15 15 13 14 15 15 16 15 13 11 7 7
9 8 7 7 7 7 6 7 6 5 6 5 5 4 4 4 2 2 2 2 3 3 4 5 5 5 6 4 4 nan nan nan nan nan 8 7 7 8 9 12 10 10 11 11 15 16 16 16 12 10 10 12 14 13 13 14 14 13 14 14 14 14 12 10 10 9 8 8 8 9 9 10 11 12 12 13 13 15 14 13 14 15 14 11 10
7 7 7 7 7 6 6 6 5 6 4 4 5 5 4 5 4 5 4 3 3 4 5 6 8 6 6 6 6 5 nan nan nan nan nan 6 7 8 8 7 8 7 6 9 11 14 18 15 11 10 12 13 13 13 12 12 13 13 13 14 14 13 13 13 12 11 10 10 9 8 8 8 7 7 8 8 9 11 11 11 11 11 11 12 12
6 7 7 8 8 6 7 7 7 6 5 5 6 5 6 7 7 6 5 4 4 4 4 6 7 8 7 7 7 nan nan nan nan nan 10 8 7 9 9 7 8 10 10 9 9 13 17 17 16 16 15 15 16 17 15 14 14 14 12 11 10 10 10 10 10 9 9 9 9 8 9 8 8 7 7 4 7 10 9 9 9 7 5 6 8
6 7 7 8 7 7 7 6 7 6 7 7 7 7 8 9 9 8 7 6 5 4 5 4 5 5 6 nan 9 nan nan nan nan nan nan nan 10 8 7 8 8 6 7 8 9 10 13 14 17 19 18 16 15 16 14 14 13 13 12 11 11 9 9 8 8 8 8 7 7 7 7 7 6 8 8 7 6 7 8 9 8 7 5 3 4
6 7 8 8 7 8 8 7 7 8 8 10 10 10 9 10 10 9 9 7 5 4 3 3 3 4 8 6 9 7 nan nan nan nan nan nan nan 7 nan 7 8 8 6 7 9 10 11 13 12 11 13 17 15 14 13 12 11 11 10 11 11 11 10 9 6 6 8 8 7 7 8 7 6 8 6 6 7 6 6 7 9 8 7 5 4
6 7 8 8 8 8 8 7 8 9 10 11 11 11 11 12 11 11 12 12 12 9 6 5 nan nan nan 7 9 10 8 nan nan nan nan nan 9 7 7 8 8 7 8 8 8 9 10 9 11 10 12 15 13 12 12 10 8 9 10 10 10 9 8 7 6 5 3 3 4 5 5 6 6 6 7 6 5 5 6 6 7 6 6 5 6
6 8 9 8 8 8 7 7 8 10 11 12 12 11 12 13 12 13 14 15 13 15 12 nan nan nan nan nan 9 9 nan nan nan nan nan nan 9 9 8 8 nan 9 8 8 9 10 9 10 10 11 11 13 15 14 11 11 11 9 9 8 8 8 8 9 9 11 10 7 7 7 6 6 6 7 7 6 7 6 6 5 7 7 6 6 6
7 9 9 9 8 8 7 7 8 9 10 12 12 12 13 13 13 14 15 14 14 14 13 18 nan nan nan nan 11 nan nan nan nan nan nan nan nan 9 8 nan nan nan nan nan 11 11 11 12 12 12 11 12 13 15 15 15 15 14 11 11 10 10 11 11 11 13 13 11 12 12 12 11 10 9 9 7 9 9 8 8 8 8 8 8 8
7 9 9 9 9 8 7 7 8 9 10 11 12 12 12 12 13 13 13 13 13 13 15 19 nan nan 11 nan nan nan nan nan nan nan nan nan nan nan nan nan nan nan nan nan nan 11 11 12 12 13 13 13 13 14 15 15 18 19 16 14 13 13 14 15 15 15 16 16 17 17 18 17 17 16 15 15 14 14 13 11 10 9 9 9 10
7 9 9 9 10 9 6 6 7 8 9 9 10 11 10 10 11 11 12 13 14 13 15 16 nan nan nan nan nan nan nan nan nan nan nan nan nan nan nan nan nan nan nan nan nan 9 10 11 12 12 13 13 14 16 16 18 21 21 20 20 20 18 18 18 18 18 18 18 18 19 19 20 19 18 18 18 17 17 17 17 16 15 13 13 13
6 9 9 10 10 8 6 5 6 6 8 9 9 9 10 9 8 9 11 10 11 12 14 16 15 nan 13 nan nan nan nan nan nan nan nan nan nan nan nan nan nan nan nan nan nan nan nan 10 10 11 12 13 14 15 17 19 20 21 22 22 22 20 19 19 21 21 20 20 21 20 20 20 21 21 20 20 19 18 18 18 18 18 18 18 18
5 7 10 10 10 9 7 5 5 5 7 8 7 8 10 10 9 10 10 10 9 11 13 15 16 17 14 12 7 9 nan nan nan nan nan nan nan nan nan nan nan nan nan nan nan nan nan 11 11 11 11 13 14 15 17 nan nan 19 20 nan 21 21 20 20 21 23 23 23 22 22 21 21 21 21 21 21 21 21 21 20 19 19 19 19 19
6 8 9 11 11 10 8 5 4 5 6 7 7 9 10 10 9 10 9 9 10 11 13 16 16 17 17 nan nan nan nan nan nan nan nan nan nan nan nan nan nan nan nan nan nan nan nan nan nan nan 13 13 14 15 16 17 17 18 19 21 19 19 20 20 20 21 22 23 24 23 23 22 22 22 22 21 22 23 23 22 21 20 19 19 20
4 6 9 11 11 11 9 7 5 5 5 6 6 7 7 8 9 9 8 9 10 11 13 14 17 17 16 16 nan 11 10 nan nan nan nan nan nan nan nan nan nan nan nan nan nan nan nan 12 13 14 nan 16 16 16 17 18 19 19 19 20 17 16 17 nan nan nan nan 20 21 23 23 24 24 23 23 22 23 23 24 24 24 23 22 21 21
4 6 8 10 11 11 11 9 7 5 5 5 6 7 9 9 9 9 8 8 8 10 11 13 15 16 16 16 15 15 nan nan nan nan nan nan nan nan nan nan nan nan nan nan nan nan nan nan nan nan nan nan 17 18 nan 19 19 19 21 25 19 18 17 17 17 nan nan nan nan nan 21 22 23 24 24 24 24 24 24 25 25 25 24 24 23
4 5 6 8 10 12 12 12 10 7 5 5 5 6 8 9 8 7 7 7 7 10 13 14 15 13 16 16 16 15 13 nan nan nan nan nan nan nan nan nan nan nan nan nan nan nan nan nan nan nan nan nan nan nan nan 18 19 19 21 27 23 21 20 19 19 18 17 nan 17 17 18 20 21 22 24 24 25 25 25 25 25 25 26 26 25
3 5 6 8 9 11 12 13 12 8 6 5 5 6 8 9 7 7 7 6 7 10 14 15 15 14 15 16 16 15 nan 14 nan nan nan nan nan nan nan nan nan nan nan nan nan nan nan nan nan nan nan nan nan nan nan nan nan 18 22 23 23 21 21 21 21 20 19 19 19 19 18 19 20 nan nan 23 24 25 25 25 25 25 26 26 26
5 4 5 8 8 9 11 13 13 10 8 6 5 6 6 8 8 7 6 6 7 11 14 17 17 16 17 17 16 14 nan nan nan nan nan 12 nan nan nan nan nan nan nan nan nan nan nan nan nan nan nan nan nan nan nan nan 16 24 19 25 22 22 22 21 21 20 20 20 20 19 19 18 19 20 20 21 22 nan nan nan nan 24 25 25 25
7 5 5 7 6 7 9 11 12 12 10 8 6 6 6 7 8 8 7 7 9 12 14 16 17 16 18 17 16 16 14 nan nan nan nan 13 nan 12 nan nan nan nan nan nan nan nan nan nan nan nan nan nan nan 13 13 nan nan 21 16 22 24 24 21 21 20 21 20 21 21 21 21 21 20 21 23 23 23 23 24 24 24 24 25 25 26
9 7 6 7 6 7 8 10 11 12 12 10 7 6 7 7 9 8 8 7 9 13 14 16 16 17 16 15 16 16 15 14 nan nan nan nan nan nan 12 nan nan nan nan nan nan nan nan nan nan nan nan nan nan nan 14 nan nan 20 15 12 23 22 22 20 20 20 21 20 21 21 21 21 21 21 22 23 23 24 25 25 26 26 26 27 27
10 10 9 8 8 8 8 10 11 12 13 11 8 7 8 8 9 9 7 8 9 12 14 16 15 17 18 15 13 14 15 14 13 nan nan 14 13 14 14 14 nan nan nan nan nan nan nan nan nan nan nan 14 nan nan 13 13 15 20 17 17 19 26 23 22 20 20 19 19 20 20 21 21 21 22 24 24 25 26 27 27 27 27 26 26 27
12 12 12 11 11 9 9 9 11 12 13 13 10 8 9 9 10 10 9 9 10 13 14 15 16 18 18 16 14 15 16 16 14 13 nan 12 12 13 15 15 14 nan nan nan nan nan nan nan nan nan nan nan 14 14 14 nan 18 23 21 20 22 26 28 26 26 24 24 23 23 22 23 23 23 24 24 25 26 28 29 29 30 29 28 27 26
12 13 13 13 12 12 10 9 11 12 14 14 12 9 8 10 11 11 10 10 11 13 14 15 16 18 18 18 16 15 14 15 14 13 12 12 13 14 16 16 16 13 16 nan nan nan nan nan nan 20 16 17 17 17 19 18 23 22 23 24 26 28 34 nan 30 29 28 28 27 26 26 26 26 26 25 26 27 29 30 31 32 32 32 32 30
12 13 13 14 13 13 12 11 10 11 13 15 14 11 9 9 11 11 11 11 12 13 14 15 17 17 18 19 18 17 16 16 16 14 14 14 14 15 16 16 16 17 16 nan 17 nan nan nan nan 19 19 20 20 21 22 22 27 23 26 26 28 31 nan nan nan nan 32 32 32 nan nan 29 28 29 28 28 29 30 31 32 33 34 34 35 35
13 13 13 13 13 14 14 13 11 11 13 14 15 13 10 8 9 10 11 12 12 13 14 15 16 18 19 20 20 19 19 19 17 17 16 15 14 15 16 16 17 17 16 16 nan 18 nan nan nan nan 21 22 21 23 25 26 30 27 28 29 30 36 nan 36 nan nan nan nan nan nan nan nan nan nan nan 33 32 33 33 34 35 35 36 36 37
15 15 14 13 13 14 15 14 13 12 13 14 16 15 12 9 9 10 11 14 13 14 14 15 16 19 20 22 23 23 23 20 18 18 18 17 16 16 17 17 18 18 18 16 14 14 17 nan 18 21 nan 24 22 24 26 27 31 29 30 31 35 nan nan 35 43 nan nan nan nan nan nan nan nan nan nan 34 34 35 35 36 36 35 35 36 36
17 17 16 14 14 14 14 14 13 13 13 15 16 17 14 11 9 9 10 12 13 14 14 15 17 19 21 22 23 25 25 22 18 18 18 18 18 17 18 19 19 20 20 19 16 14 15 15 16 19 23 22 25 25 26 28 31 32 31 33 34 nan 34 32 37 45 nan nan nan nan nan nan nan nan nan 36 36 36 37 38 38 38 37 36 35
18 18 18 17 16 15 15 15 15 15 15 15 16 17 16 13 10 10 10 11 13 14 15 15 17 18 20 21 24 26 25 22 18 17 17 18 19 18 19 20 19 20 21 20 18 15 15 18 16 17 21 23 22 26 27 29 30 32 32 33 33 32 31 33 31 40 46 nan nan nan nan nan nan nan nan nan 36 36 37 38 39 40 39 38 36
19 18 19 20 19 18 18 18 17 16 16 16 16 16 16 14 11 11 12 13 13 14 15 16 17 19 20 21 24 25 23 22 18 16 16 17 17 18 20 19 19 19 21 21 19 19 18 18 19 20 22 24 22 27 27 29 30 31 31 32 32 32 32 31 32 35 nan nan nan nan nan nan nan nan nan nan nan 35 34 34 nan nan nan nan nan
18 19 19 21 21 21 20 20 21 19 18 18 17 16 16 15 12 11 12 13 14 15 16 17 17 19 20 21 23 25 24 21 18 16 15 16 17 18 19 19 20 20 20 22 21 19 20 19 22 20 24 25 25 27 29 29 30 32 31 32 31 32 33 35 36 36 50 50 nan nan nan nan nan nan nan nan nan nan nan nan nan nan nan nan nan
16 17 18 19 20 21 21 22 22 21 20 20 19 17 16 14 13 12 13 15 16 16 16 16 17 19 21 21 23 24 24 21 19 17 17 19 18 19 19 19 21 22 21 22 22 22 21 22 23 24 24 25 26 28 30 31 32 31 32 31 32 33 35 36 36 41 50 53 nan nan nan nan nan nan nan nan nan nan 33 31 nan nan nan nan nan
14 14 15 15 15 16 18 20 21 22 22 22 21 19 16 14 14 13 13 14 17 17 17 16 17 18 20 21 22 24 24 22 20 19 19 21 21 20 20 20 22 24 25 24 24 23 23 23 23 25 27 27 29 29 32 32 32 32 32 33 33 34 36 38 39 41 43 48 49 53 53 49 48 nan 41 40 nan nan nan nan nan nan nan nan nan
13 14 14 15 14 14 15 16 17 19 20 20 20 18 15 14 14 13 12 15 17 19 18 17 16 17 19 20 21 23 23 22 21 21 22 22 21 22 21 21 24 27 29 29 29 27 25 25 25 25 26 29 29 31 35 34 32 30 31 32 33 36 39 39 40 42 44 46 50 53 nan 39 37 37 42 39 nan nan nan nan nan nan nan nan nan
14 16 16 17 16 15 16 16 15 15 16 15 16 16 15 14 13 14 13 15 18 20 19 19 17 16 18 20 21 22 23 22 22 21 22 22 21 21 21 22 25 29 31 32 33 32 29 26 25 26 27 29 32 31 35 37 34 32 31 31 33 35 39 41 42 43 46 46 44 44 51 47 43 41 41 40 39 37 36 nan nan nan nan nan nan
12 15 17 18 19 18 17 17 16 15 14 14 13 15 16 15 13 14 14 15 19 21 21 20 18 16 17 19 19 21 23 22 24 22 23 23 22 22 23 25 28 31 32 34 35 34 31 27 25 26 28 30 31 34 36 37 35 32 33 35 34 35 38 41 45 47 47 47 45 43 40 36 32 30 30 29 32 40 40 42 36 39 nan nan nan
11 13 15 17 19 20 19 19 18 16 14 13 14 18 18 16 15 15 15 16 20 22 22 21 19 18 18 19 20 22 25 26 25 25 24 27 25 23 24 27 29 31 34 35 36 35 32 28 26 28 30 31 32 34 35 36 35 33 34 35 34 36 39 41 43 46 49 46 44 40 36 34 31 30 31 32 32 32 32 36 39 nan nan nan nan
11 12 14 17 17 17 19 19 19 16 15 14 19 20 21 19 16 15 15 17 21 23 23 22 21 20 19 20 19 24 26 28 28 29 26 29 30 25 24 27 29 32 34 35 35 35 33 29 28 30 32 33 33 34 37 36 35 34 34 36 36 37 39 41 43 48 49 46 44 38 34 32 31 31 33 33 34 35 36 45 nan nan nan nan nan
12 13 14 15 15 15 15 16 18 17 15 18 22 22 22 21 17 14 15 16 21 23 23 23 23 21 21 22 22 23 26 28 28 29 29 29 30 29 27 27 30 33 32 33 34 34 33 31 31 32 33 34 34 35 36 35 35 35 34 35 37 38 40 43 44 44 49 49 42 nan nan nan nan nan 34 36 nan nan nan nan nan nan nan nan nan
14 14 16 16 16 16 15 16 15 16 14 19 23 25 24 24 22 17 15 16 19 22 23 24 24 23 23 24 23 23 26 32 30 30 31 31 30 30 29 nan 30 34 34 31 28 29 33 33 32 33 34 35 36 36 36 35 36 35 36 35 37 40 42 43 43 nan nan 44 nan nan nan nan nan nan nan nan nan nan nan nan nan nan nan nan nan
13 15 16 17 16 17 15 14 14 14 14 19 24 27 28 28 26 20 14 16 18 20 22 24 25 24 25 25 25 25 27 31 30 31 32 33 33 29 27 28 29 33 34 34 33 30 27 31 34 34 36 37 37 37 37 38 38 35 35 35 38 39 42 42 42 43 43 nan nan nan nan nan nan nan nan nan nan nan nan nan nan nan nan nan nan
13 14 16 18 18 18 17 16 15 13 11 17 23 26 28 31 30 25 18 17 19 20 21 23 24 24 25 26 26 26 28 30 31 33 34 35 34 32 31 31 32 34 37 38 38 36 35 35 36 37 37 39 38 39 41 39 37 35 34 34 37 38 40 41 nan nan nan nan nan nan nan nan nan nan nan nan nan nan nan nan nan nan nan nan nan
14 15 15 17 19 18 17 16 16 13 10 16 22 26 29 31 33 27 23 19 19 21 23 24 24 24 25 26 27 27 28 28 33 38 36 36 34 33 33 34 34 35 37 40 42 40 38 38 38 38 39 42 41 41 42 39 39 37 38 38 nan nan nan nan nan nan nan nan nan nan nan nan nan nan nan nan nan nan nan nan nan nan nan nan nan
17 18 19 19 20 19 19 19 17 15 12 16 22 26 29 34 34 28 26 22 19 20 24 25 25 24 23 26 27 29 29 28 36 40 40 38 34 33 34 35 36 37 38 41 46 44 41 41 nan nan 47 50 48 46 45 39 37 38 38 nan nan nan nan nan nan nan nan nan nan nan nan nan nan nan nan nan nan nan nan nan nan nan nan nan nan
18 20 22 22 22 22 22 21 22 20 18 21 27 26 29 34 35 31 29 25 23 22 24 26 27 26 24 26 28 30 30 29 40 41 44 41 35 34 33 34 36 37 39 41 45 43 46 46 47 nan nan nan nan nan nan nan nan nan nan nan nan nan nan nan nan nan nan nan nan nan nan nan nan nan nan nan nan nan nan nan nan nan nan nan nan
21 23 25 24 24 24 24 23 25 25 23 26 36 32 30 34 34 31 29 26 26 25 27 28 28 28 27 29 30 29 30 35 44 43 46 44 37 36 34 33 36 38 41 43 44 44 44 44 45 47 nan nan 47 45 nan nan nan nan nan nan nan nan nan nan nan nan nan nan nan nan nan nan nan nan nan nan nan nan nan nan nan nan nan nan nan
Wind_Direction
101 96 95 94 92 90 88 85 81 78 68 56 55 54 47 52 54 59 28 42 40 21 14 42 347 351 351 344 355 356 11 19 7 28 30 40 41 19 20 15 6 11 10 18 28 31 10 17 30 34 26 353 329 355 2 299 14 314 308 307 300 293 287 286 290 287 291 294 295 290 296 298 299 291 289 290 286 290 295 303 311 316 324 329 337
101 105 98 95 90 86 83 76 77 64 62 48 38 42 39 32 37 53 46 32 30 2 50 4 332 356 350 351 360 347 0 0 nan nan 10 26 47 12 17 15 6 11 6 15 26 29 25 27 26 33 33 33 23 21 23 6 352 262 296 290 307 303 286 272 270 279 286 284 287 295 293 294 289 287 289 285 287 286 287 292 300 303 319 327 331
111 104 101 96 89 85 83 80 63 56 49 33 9 27 25 8 353 36 31 30 26 357 34 8 343 350 346 356 359 346 348 nan nan nan nan 4 30 16 11 12 14 10 11 17 18 29 36 35 29 26 22 45 46 35 27 359 11 4 356 351 350 294 269 259 254 257 267 288 300 284 284 276 276 277 276 282 283 285 278 274 258 283 288 296 312
116 109 104 98 92 78 71 69 63 52 45 34 31 11 15 341 338 346 2 23 11 350 331 347 319 350 349 346 4 354 343 nan nan nan nan nan 10 2 12 24 24 11 14 23 26 37 38 43 38 26 16 32 34 35 26 15 9 7 13 5 357 348 318 242 231 247 261 266 268 281 282 289 287 287 289 281 279 275 266 258 273 260 231 239 268
109 103 101 93 84 75 67 57 48 44 35 21 30 29 13 13 348 356 359 3 347 319 327 315 327 318 347 313 7 341 351 nan nan nan nan 344 354 351 5 15 25 17 13 19 25 33 40 46 41 28 18 23 28 32 36 20 14 3 14 10 8 357 344 333 316 297 285 281 284 291 294 299 301 301 287 283 283 287 296 299 294 297 302 306 315
110 103 100 87 73 65 61 56 48 40 34 28 27 25 27 36 13 26 343 14 323 306 304 304 310 321 325 311 347 315 nan nan nan nan nan nan 334 349 350 16 15 16 10 14 22 23 32 40 37 28 22 18 30 40 36 30 19 14 19 20 9 9 5 355 336 323 313 309 306 308 311 312 311 310 311 310 306 302 303 303 303 292 288 290 289
113 109 95 88 72 58 52 51 39 44 47 21 47 24 26 25 20 52 0 334 325 298 289 295 304 313 317 323 313 nan nan nan nan nan 316 320 335 332 342 2 11 353 9 6 13 20 29 38 33 33 31 23 24 27 30 30 32 25 26 19 10 10 6 1 353 340 328 325 324 328 328 326 328 327 327 330 329 323 323 317 308 298 287 276 272
108 98 91 78 71 63 49 46 37 52 51 49 52 36 19 34 26 31 16 4 323 317 314 305 315 316 321 331 316 325 nan nan nan nan nan 310 322 323 329 346 349 348 6 356 349 7 17 26 18 15 36 33 24 27 14 17 15 26 27 24 21 17 11 5 359 351 346 345 340 339 331 324 326 325 324 338 344 329 322 317 310 298 281 271 273
93 83 82 76 74 68 54 40 43 52 57 55 54 46 35 33 33 29 26 16 4 333 316 317 320 324 328 333 310 nan nan nan nan nan 291 313 316 311 320 323 335 352 354 353 353 345 7 16 9 16 23 31 21 21 15 11 6 13 15 18 20 18 16 14 3 353 353 354 342 335 328 326 322 316 316 346 335 329 331 334 330 325 297 278 278
76 70 72 79 79 70 65 39 47 52 57 61 59 51 35 31 25 16 15 16 5 343 323 320 312 332 330 nan 318 nan nan nan nan nan nan nan 301 303 301 320 328 331 338 341 339 347 346 10 8 12 14 14 19 15 18 17 14 15 16 16 17 15 13 12 1 354 348 344 340 334 322 321 329 329 335 345 341 339 337 337 342 348 353 352 313
64 58 64 69 66 59 58 43 50 53 60 61 52 44 40 33 30 22 20 25 24 355 322 304 326 352 339 346 330 336 nan nan nan nan nan nan nan 309 nan 305 307 316 319 330 333 332 341 347 342 10 4 3 8 15 13 14 13 12 9 16 17 11 5 7 1 352 341 348 345 337 335 342 341 332 338 339 343 334 323 326 336 349 1 1 333
52 53 56 61 60 52 51 42 47 54 56 60 57 48 43 45 43 43 38 40 34 31 15 20 nan nan nan 1 352 352 360 nan nan nan nan nan 308 295 307 298 290 291 304 311 313 317 322 327 333 342 334 341 351 357 1 4 5 6 6 6 2 1 356 331 340 344 307 329 319 298 315 326 332 323 322 330 315 313 304 303 313 326 333 334 323
48 47 49 46 50 53 49 43 50 52 55 60 60 58 56 62 58 53 51 47 38 36 32 nan nan nan nan nan 3 18 nan nan nan nan nan nan 328 323 310 302 nan 292 286 286 291 295 306 311 317 322 323 320 334 340 342 347 345 350 345 350 336 348 340 341 336 336 337 323 303 298 300 309 305 306 309 311 308 290 293 311 306 304 302 301 299
46 43 41 35 39 47 45 43 49 58 56 62 65 64 65 66 63 55 53 52 41 46 32 40 nan nan nan nan 6 nan nan nan nan nan nan nan nan 330 310 nan nan nan nan nan 292 300 302 300 301 302 306 311 311 314 327 334 336 326 313 315 321 323 322 316 307 303 309 307 293 288 285 285 292 299 307 312 303 314 324 323 315 306 296 291 287
43 38 34 31 39 46 44 42 51 58 56 63 64 66 73 70 63 63 53 46 41 35 37 59 nan nan 28 nan nan nan nan nan nan nan nan nan nan nan nan nan nan nan nan nan nan 290 282 284 287 291 294 299 300 302 302 294 289 301 300 300 298 303 304 307 306 296 291 292 288 287 287 287 284 283 283 288 291 288 284 286 289 292 293 292 288
37 34 29 28 31 39 44 49 48 52 56 64 62 65 67 67 62 52 52 44 33 25 35 40 nan nan nan nan nan nan nan nan nan nan nan nan nan nan nan nan nan nan nan nan nan 300 299 298 298 296 294 291 295 302 303 297 303 306 303 302 300 295 294 294 294 291 288 289 290 288 288 287 285 283 282 280 280 279 277 273 269 272 274 277 275
33 29 32 26 27 32 40 46 52 46 56 61 59 55 52 57 54 48 45 48 36 25 28 26 25 nan 19 nan nan nan nan nan nan nan nan nan nan nan nan nan nan nan nan nan nan nan nan 312 305 300 295 297 298 298 301 306 307 304 306 303 297 297 294 292 297 295 294 289 290 293 292 292 290 288 285 284 281 279 279 277 273 270 269 270 270
22 23 29 31 26 28 32 40 44 48 51 59 54 40 40 46 38 45 39 37 46 34 14 23 13 15 20 28 14 11 nan nan nan nan nan nan nan nan nan nan nan nan nan nan nan nan nan 329 325 316 313 307 305 303 302 nan nan 305 298 nan 296 296 295 293 290 294 294 294 293 296 296 295 294 291 289 287 286 284 283 282 279 277 275 273 273
11 12 26 30 30 26 22 26 43 48 45 46 38 34 24 28 31 34 36 24 27 29 15 8 5 6 7 nan nan nan nan nan nan nan nan nan nan nan nan nan nan nan nan nan nan nan nan nan nan nan 320 319 314 312 315 307 301 297 292 294 300 300 299 299 298 295 296 296 295 294 295 296 297 296 294 293 289 288 288 288 287 285 281 280 278
9 7 21 27 29 26 21 17 25 35 38 38 36 23 15 12 20 22 21 20 16 21 16 2 360 359 358 1 nan 359 357 nan nan nan nan nan nan nan nan nan nan nan nan nan nan nan nan 346 338 338 nan 330 330 326 323 323 324 325 324 320 313 310 305 nan nan nan nan 295 294 295 294 294 294 295 295 293 290 291 292 293 295 295 294 290 287
4 11 13 23 24 26 21 16 12 14 18 32 23 8 9 8 9 11 9 7 15 10 6 2 5 351 355 4 5 1 nan nan nan nan nan nan nan nan nan nan nan nan nan nan nan nan nan nan nan nan nan nan 335 334 nan 334 334 334 333 333 334 329 326 321 320 nan nan nan nan nan 297 297 297 297 297 296 296 296 297 297 296 297 296 295 293
337 1 7 17 22 23 23 18 13 10 9 27 11 357 356 1 6 9 358 2 354 2 359 357 5 4 357 1 4 9 8 nan nan nan nan nan nan nan nan nan nan nan nan nan nan nan nan nan nan nan nan nan nan nan nan 341 340 346 332 334 341 341 337 337 335 331 325 nan 314 309 304 301 299 298 298 298 297 296 295 295 295 295 296 294 293
300 321 0 11 16 19 21 16 14 4 358 7 6 352 346 349 353 351 350 353 346 353 356 357 360 6 360 2 5 6 nan 11 nan nan nan nan nan nan nan nan nan nan nan nan nan nan nan nan nan nan nan nan nan nan nan nan nan 329 322 335 338 344 343 343 343 341 336 332 327 322 316 310 304 nan nan 298 299 298 298 296 294 292 291 291 289
273 295 338 4 3 11 17 17 12 3 353 349 352 345 335 331 332 330 338 346 347 350 354 356 1 357 6 1 9 17 nan nan nan nan nan 24 nan nan nan nan nan nan nan nan nan nan nan nan nan nan nan nan nan nan nan nan 342 327 349 337 343 343 345 344 342 339 337 334 330 327 322 316 308 302 298 295 294 nan nan nan nan 293 290 288 287
281 295 325 354 347 355 4 8 7 0 353 347 344 341 330 322 325 329 336 342 345 350 353 357 360 357 358 3 6 16 14 nan nan nan nan 17 nan 31 nan nan nan nan nan nan nan nan nan nan nan nan nan nan nan 354 352 nan nan 332 346 334 339 339 339 338 335 333 331 331 329 326 322 318 312 308 305 302 299 296 294 292 291 290 289 286 285
289 300 311 329 336 340 348 357 359 353 350 349 340 333 329 321 321 327 336 336 346 351 353 356 356 357 356 358 4 9 17 14 nan nan nan nan nan nan 23 nan nan nan nan nan nan nan nan nan nan nan nan nan nan nan 352 nan nan 319 332 333 331 333 333 331 328 328 328 327 324 322 320 318 315 311 308 305 302 299 296 294 291 288 286 284 282
289 294 306 313 322 325 336 347 350 347 345 347 341 332 327 323 316 320 326 328 346 349 349 355 354 355 355 355 6 10 8 10 15 nan nan 14 16 15 14 16 nan nan nan nan nan nan nan nan nan nan nan 358 nan nan 357 356 327 322 337 342 330 324 328 325 324 323 321 320 319 319 318 316 312 309 307 306 303 302 300 299 297 294 291 287 284
283 291 302 308 312 319 324 337 343 343 341 344 341 328 323 323 316 315 326 329 340 351 348 351 352 352 353 352 0 12 360 4 8 8 nan 13 8 9 8 14 18 nan nan nan nan nan nan nan nan nan nan nan 352 350 343 nan 340 327 345 339 330 325 324 326 325 325 325 325 323 322 318 313 311 308 306 303 301 299 299 299 298 298 297 294 290
279 286 297 304 305 310 312 321 330 335 338 338 337 331 319 314 311 314 324 334 335 347 347 346 347 347 348 352 356 3 359 353 357 1 0 2 3 5 6 9 4 12 358 nan nan nan nan nan nan 337 339 344 345 343 341 345 328 340 338 337 331 328 321 nan 326 326 327 326 324 323 320 317 314 311 305 300 296 293 292 292 292 294 295 295 293
279 280 291 301 302 306 302 305 316 328 334 334 333 330 319 310 319 317 322 327 332 336 344 344 342 342 344 346 353 357 354 350 350 357 351 358 1 1 0 1 359 1 357 nan 348 nan nan nan nan 335 340 338 340 339 339 338 321 344 335 335 335 322 nan nan nan nan 328 329 330 nan nan 321 316 311 304 299 294 291 290 289 287 288 288 289 290
284 284 288 295 298 298 298 300 302 314 325 332 331 323 315 307 312 313 317 321 326 332 338 340 337 337 342 346 347 353 349 347 345 348 349 353 356 355 354 354 353 356 355 353 nan 342 nan nan nan nan 330 334 338 334 333 334 331 338 336 332 328 317 nan 329 nan nan nan nan nan nan nan nan nan nan nan 300 296 292 289 286 285 284 283 283 284
287 292 290 294 296 296 295 298 301 305 315 323 328 324 311 303 304 310 317 321 324 330 335 335 331 333 338 344 346 347 348 347 343 343 343 347 350 350 351 350 349 350 348 350 355 342 340 nan 331 330 nan 330 333 333 333 330 322 333 333 330 321 nan nan 331 332 nan nan nan nan nan nan nan nan nan nan 301 296 294 291 289 286 283 282 280 280
288 292 294 295 296 295 294 294 298 296 302 312 318 320 312 303 300 304 307 316 322 324 329 333 330 329 334 342 346 347 348 352 346 342 341 343 348 350 350 350 349 346 345 345 348 346 337 333 329 324 321 324 329 332 330 327 325 327 328 326 325 nan 328 327 327 331 nan nan nan nan nan nan nan nan nan 302 298 296 294 293 291 290 288 285 283
289 294 297 295 295 296 294 293 294 294 297 304 316 319 311 301 302 293 300 311 317 322 324 326 326 325 329 340 346 346 349 356 353 347 342 342 347 352 353 355 351 346 343 341 343 341 339 328 328 321 319 324 326 326 328 328 326 324 326 323 324 326 325 325 325 322 326 nan nan nan nan nan nan nan nan nan 303 299 296 294 293 292 291 289 286
293 296 298 298 298 300 298 296 296 296 297 301 307 316 308 299 295 296 296 304 312 318 323 322 323 323 328 338 346 346 347 356 356 348 343 345 349 356 359 359 359 352 343 341 335 335 335 331 326 325 323 321 325 323 327 325 324 325 325 326 326 324 324 325 325 320 nan nan nan nan nan nan nan nan nan nan nan 306 302 297 nan nan nan nan nan
300 299 301 301 301 302 302 301 300 297 297 297 301 309 309 297 288 291 293 296 300 307 312 315 319 322 328 336 346 347 349 354 352 344 342 346 351 353 357 357 356 356 346 339 337 331 327 327 323 325 318 320 323 321 324 324 326 326 326 325 328 328 329 328 327 325 320 323 nan nan nan nan nan nan nan nan nan nan nan nan nan nan nan nan nan
315 307 305 307 306 305 301 301 300 300 298 297 298 303 303 294 283 281 288 290 293 298 304 307 313 320 325 335 343 345 347 352 347 343 342 348 348 346 349 350 350 349 345 338 334 329 324 322 319 320 318 319 320 322 324 325 326 327 327 328 329 330 330 330 328 326 321 327 nan nan nan nan nan nan nan nan nan nan 318 316 nan nan nan nan nan
334 331 326 322 320 317 308 304 302 301 299 297 298 299 302 298 284 279 284 287 288 292 297 301 308 315 320 331 340 343 345 347 344 340 342 346 342 341 343 344 343 342 341 337 330 325 322 318 317 318 320 321 322 323 324 325 326 326 327 329 330 331 329 330 329 327 326 326 326 328 332 332 336 nan 329 328 nan nan nan nan nan nan nan nan nan
354 354 349 346 341 339 330 323 317 310 307 305 301 301 301 301 291 282 283 284 282 285 291 298 303 311 317 324 335 341 342 342 341 339 340 343 342 345 345 345 343 340 338 335 331 326 320 316 316 318 318 320 322 323 323 325 325 325 326 328 330 329 329 329 328 326 326 327 328 332 nan 323 316 325 330 334 nan nan nan nan nan nan nan nan nan
10 8 3 356 351 347 345 343 338 328 326 324 319 313 312 312 301 283 280 280 280 283 289 293 298 305 313 321 332 337 339 338 337 334 334 337 340 344 343 343 342 341 339 336 334 331 325 318 315 316 319 320 321 322 321 322 324 325 327 329 329 327 327 328 329 327 326 328 328 327 330 332 335 336 332 334 338 338 336 nan nan nan nan nan nan
12 13 9 2 357 352 349 345 341 338 340 340 333 325 322 327 309 284 279 279 278 281 286 291 293 298 304 312 325 333 333 332 333 328 329 325 331 336 337 339 340 341 340 337 336 335 330 323 317 316 319 322 323 323 324 325 325 326 326 327 327 327 328 329 328 329 329 329 328 328 325 323 326 327 327 327 327 333 337 341 331 332 nan nan nan
4 4 3 1 360 355 351 346 339 334 333 334 336 337 326 316 307 283 275 275 278 282 286 289 291 294 300 304 312 327 323 324 322 324 322 321 327 330 331 334 338 339 340 340 339 338 334 329 323 320 322 323 324 326 325 325 323 323 324 325 328 329 329 328 328 331 329 329 328 328 324 323 326 326 327 328 326 329 326 328 314 nan nan nan nan
352 347 348 353 353 350 350 346 343 336 330 327 331 328 326 320 306 296 285 278 280 286 291 293 291 290 290 297 302 309 312 313 317 321 319 319 324 329 329 333 337 338 339 340 341 340 336 331 325 323 323 325 325 324 325 323 322 324 325 325 328 328 329 329 329 328 327 327 329 328 325 324 327 329 328 329 331 330 332 322 nan nan nan nan nan
328 327 334 337 337 338 337 342 342 339 335 329 324 323 318 317 315 299 293 285 283 290 296 299 293 288 287 289 295 299 310 317 316 314 317 318 321 327 331 330 334 339 340 339 338 339 338 333 328 326 325 323 322 324 324 322 322 322 324 326 328 329 330 331 330 330 326 328 329 nan nan nan nan nan 332 334 nan nan nan nan nan nan nan nan nan
308 319 318 320 324 326 329 333 336 337 340 326 323 319 317 317 318 313 292 289 289 292 297 300 298 293 288 286 289 294 297 309 311 315 315 314 317 327 333 nan 332 334 337 340 336 334 333 335 331 328 325 323 324 324 323 320 319 321 323 326 328 329 330 330 330 nan nan 326 nan nan nan nan nan nan nan nan nan nan nan nan nan nan nan nan nan
306 311 317 325 322 321 324 331 325 325 340 324 325 320 318 317 317 311 297 290 288 290 296 299 297 297 294 289 288 290 293 299 308 312 311 313 314 319 324 326 330 331 333 336 335 335 331 331 331 329 325 326 324 322 322 318 318 321 322 325 326 329 330 330 326 326 328 nan nan nan nan nan nan nan nan nan nan nan nan nan nan nan nan nan nan
297 307 312 316 319 312 320 326 325 323 326 321 318 319 319 318 317 309 299 288 284 286 290 294 297 298 296 292 291 289 290 295 300 307 307 308 312 317 323 328 329 330 331 334 333 331 331 332 328 328 326 325 325 322 317 317 319 318 318 319 322 324 324 324 nan nan nan nan nan nan nan nan nan nan nan nan nan nan nan nan nan nan nan nan nan
281 287 296 302 305 310 314 315 318 325 320 313 311 316 319 317 313 296 298 298 289 287 288 289 290 291 293 293 291 290 288 293 297 304 304 304 310 315 320 322 324 325 327 327 329 327 330 329 327 326 327 323 318 319 317 318 316 314 314 317 nan nan nan nan nan nan nan nan nan nan nan nan nan nan nan nan nan nan nan nan nan nan nan nan nan
285 291 293 293 289 297 305 307 316 312 307 296 301 308 312 313 302 295 299 301 298 294 287 287 287 290 294 296 295 289 289 290 294 302 301 303 307 312 315 317 318 321 321 319 319 325 317 301 nan nan 302 306 306 306 304 299 303 311 315 nan nan nan nan nan nan nan nan nan nan nan nan nan nan nan nan nan nan nan nan nan nan nan nan nan nan
289 290 287 286 288 289 297 309 314 315 310 300 296 298 304 305 304 297 296 303 302 299 291 291 289 290 298 304 299 296 293 290 293 300 300 300 303 308 312 315 318 321 320 316 308 303 301 299 298 nan nan nan nan nan nan nan nan nan nan nan nan nan nan nan nan nan nan nan nan nan nan nan nan nan nan nan nan nan nan nan nan nan nan nan nan
286 282 283 285 289 292 300 309 312 316 313 303 299 298 298 299 299 292 297 302 300 301 298 297 297 293 293 294 303 299 296 289 294 297 298 300 301 303 307 311 314 315 312 313 315 315 313 312 309 306 nan nan 311 314 nan nan nan nan nan nan nan nan nan nan nan nan nan nan nan nan nan nan nan nan nan nan nan nan nan nan nan nan nan nan nan